STARLINK-35600, 66510

Orbit data source: Space-Track

STARLINK-35600, 66510 is a payload satellite owned by SpaceX/Seattle (US) in LEO that was launched on Sat, 15 Nov 2025 UTC via an FALCON 9 launch vehicle from the Air Force Eastern Test Range (AFETR). Payload-class satellites include a variety of spacecraft equipped with specific instruments for various scientific and technological missions. These include communications satellites like Starlink; space stations such as the ISS; scientific satellites like the Hubble; Earth observation satellites from companies like Planet Labs, Umbra, and HawkEye 360; GPS; miniature CubeSats for education and research; and military/defense satellites.

Loading next visibility...
Identifier
66510, 2025-263AB
Orbit
LEO
Country
Flag of USUS
Related business
Manufacturer
SpaceX/Seattle
Mission
Operational Commercial Communications
Bus & Motor
STARLINK V2MO, Unknown motor
Mass
575 kg wet, ~530 kg dry
Launch date (UTC)
2025-11-15 (7 months ago)
Launch vehicle
FALCON 9
Launch site
Air Force Eastern Test Range (AFETR)
Object type
Payload
Rocket body
Debris
Shape & HBR
Box + 2 Pan, 17.7 m
Radar Cross Section
36.964 m², Large (>1 m²)

Expand to show TLE details & history
Last TLE update: 14 hours ago

TLE from 14 hours ago
0 STARLINK-35600
1 66510U 25263AB  26171.27262360  .00013342  00000-0  49291-3 0  9992
2 66510  43.0044 131.7037 0001199 258.8083 101.2634 15.27617367 34583
Epoch: 2026-06-20T06:32Z
TLE epoch observation values (Epoch: 2026-06-20T06:32:34.679Z)
Latitude
Longitude
125.06959°
Altitude
482.874 km
Speed
7.626 km/s
True Right ascension
08h 46m 48s
True Declination
0° 00' 00"
Sunlit
Object was in daylight at epoch
Visualization orbit readout
Latitude
Unknown
Longitude
Unknown
Altitude
Unknown
Speed
Unknown
Apparent Right ascension
Unknown
Apparent Declination
Unknown
Sunlit
N/A
Visualization observer readout
Local Sidereal Time
07:18:16
Azimuth
Unknown
Elevation
Unknown
Doppler factor
Unknown
Orbital elements
Apogee altitude
485.705 km
Perigee altitude
484.059 km
Semi-major axis
6,863.019 km
Eccentricity
0.00012
Inclination
43.0044°
RAAN
131.7037°
Arg. of periapsis
258.8083°
True anomaly
101.27687°
Mean anomaly
101.2634°
Eccentric anomaly
101.27014°
Mean motion
3.81742 °/min
Orbital period
94.3 mins
BSTAR
0.00049291
Loading maneuver chart data...
Computing Atmospheric mass density...
Loading historical data...
Loading historical data...
Loading historical data...
Loading historical data...
Loading historical data...
Loading historical data...
Loading historical data...

Documentation

Showing up to 5 results
|